ACA8695 KBOS-CYYZ

Flight info

Callsign ACA8695
Flight time 1h 16m
Altitude 36000
Route HYLND7 HYLND CAM WAYGO IGSAP UDNOX RAGID6
Aircraft A320/M-SDE3FGHIRWY/LB1

Departure

Time 2026-05-07 19:30
Airport Boston Logan International Airport (KBOS)

Arrival

Time 2026-05-07 20:46
Airport Toronto Pearson International Airport (CYYZ)
Time Latitude Longitude Altitude Speed Heading
2026-05-07 18:56 42.36122 -71.02119 29 ft 0 kts 25°
2026-05-07 18:58 42.36122 -71.02120 28 ft 0 kts 25°
2026-05-07 19:14 42.36113 -71.02125 29 ft 2 kts 31°
2026-05-07 19:15 42.36099 -71.02137 28 ft 2 kts 41°
2026-05-07 19:15 42.36087 -71.02151 28 ft 2 kts 56°
2026-05-07 19:15 42.36080 -71.02171 26 ft 2 kts 89°
2026-05-07 19:15 42.36083 -71.02192 29 ft 1 kts 118°
2026-05-07 19:16 42.36084 -71.02196 29 ft 0 kts 124°
2026-05-07 19:16 42.36085 -71.02197 29 ft 0 kts 121°
2026-05-07 19:19 42.36081 -71.02188 28 ft 4 kts 120°
2026-05-07 19:19 42.36050 -71.02115 29 ft 13 kts 122°
2026-05-07 19:19 42.36005 -71.02016 27 ft 13 kts 120°
2026-05-07 19:19 42.35956 -71.01902 25 ft 13 kts 121°
2026-05-07 19:20 42.35917 -71.01794 25 ft 12 kts 105°
2026-05-07 19:20 42.35901 -71.01692 29 ft 10 kts 101°
2026-05-07 19:20 42.35932 -71.01627 29 ft 9 kts 22°
2026-05-07 19:20 42.36011 -71.01588 27 ft 16 kts 20°
2026-05-07 19:21 42.36138 -71.01528 25 ft 23 kts 19°
2026-05-07 19:21 42.36281 -71.01459 25 ft 15 kts 19°
2026-05-07 19:21 42.36358 -71.01415 27 ft 9 kts 39°
2026-05-07 19:21 42.36351 -71.01349 27 ft 9 kts 125°
2026-05-07 19:22 42.36313 -71.01265 27 ft 11 kts 121°
2026-05-07 19:22 42.36272 -71.01175 27 ft 12 kts 121°
2026-05-07 19:22 42.36238 -71.01080 29 ft 10 kts 114°
2026-05-07 19:22 42.36208 -71.00992 25 ft 10 kts 114°
2026-05-07 19:23 42.36183 -71.00915 28 ft 7 kts 114°
2026-05-07 19:23 42.36167 -71.00867 27 ft 4 kts 114°
2026-05-07 19:23 42.36153 -71.00824 28 ft 7 kts 114°
2026-05-07 19:23 42.36126 -71.00742 26 ft 11 kts 112°
2026-05-07 19:24 42.36098 -71.00631 28 ft 14 kts 109°
2026-05-07 19:24 42.36066 -71.00502 27 ft 14 kts 109°
2026-05-07 19:24 42.36033 -71.00374 26 ft 18 kts 108°
2026-05-07 19:24 42.35999 -71.00240 27 ft 11 kts 109°
2026-05-07 19:25 42.35977 -71.00154 25 ft 11 kts 109°
2026-05-07 19:25 42.35934 -71.00055 28 ft 12 kts 129°
2026-05-07 19:25 42.35879 -70.99979 25 ft 11 kts 135°
2026-05-07 19:25 42.35813 -70.99891 27 ft 16 kts 135°
2026-05-07 19:26 42.35733 -70.99783 25 ft 16 kts 135°
2026-05-07 19:26 42.35660 -70.99686 26 ft 13 kts 135°
2026-05-07 19:26 42.35605 -70.99611 25 ft 14 kts 135°
2026-05-07 19:26 42.35527 -70.99505 27 ft 12 kts 134°
2026-05-07 19:27 42.35490 -70.99446 26 ft 7 kts 116°
2026-05-07 19:27 42.35490 -70.99394 25 ft 3 kts 72°
2026-05-07 19:27 42.35492 -70.99387 25 ft 0 kts 72°
2026-05-07 19:27 42.35500 -70.99354 25 ft 8 kts 72°
2026-05-07 19:28 42.35518 -70.99305 27 ft 9 kts 43°
2026-05-07 19:28 42.35569 -70.99306 26 ft 7 kts 329°
2026-05-07 19:28 42.35585 -70.99326 25 ft 0 kts 316°
2026-05-07 19:29 42.35736 -70.99530 27 ft 67 kts 315°
2026-05-07 19:29 42.36216 -71.00172 23 ft 126 kts 315°
2026-05-07 19:29 42.37198 -71.01479 384 ft 155 kts 313°
2026-05-07 19:30 42.37724 -71.02156 845 ft 155 kts 314°
2026-05-07 19:30 42.38441 -71.03235 1575 ft 154 kts 300°
2026-05-07 19:30 42.38999 -71.04525 2085 ft 168 kts 299°
2026-05-07 19:30 42.39626 -71.05992 2405 ft 193 kts 300°
2026-05-07 19:31 42.40338 -71.07664 2825 ft 217 kts 300°
2026-05-07 19:31 42.41204 -71.09474 3302 ft 240 kts 314°
2026-05-07 19:31 42.42680 -71.10622 4074 ft 252 kts 338°
2026-05-07 19:31 42.44306 -71.11419 4985 ft 254 kts 336°
2026-05-07 19:32 42.45957 -71.12314 5880 ft 256 kts 335°
2026-05-07 19:32 42.47616 -71.13241 6736 ft 259 kts 334°
2026-05-07 19:32 42.49291 -71.14183 7538 ft 263 kts 333°
2026-05-07 19:32 42.50990 -71.15136 8371 ft 265 kts 332°
2026-05-07 19:33 42.52726 -71.16036 9241 ft 268 kts 333°
2026-05-07 19:33 42.54491 -71.16861 10078 ft 271 kts 333°
2026-05-07 19:33 42.56325 -71.17688 10504 ft 288 kts 333°
2026-05-07 19:33 42.58308 -71.18588 10705 ft 312 kts 333°
2026-05-07 19:34 42.60419 -71.19547 11061 ft 327 kts 333°
2026-05-07 19:34 42.62605 -71.20526 11670 ft 334 kts 333°
2026-05-07 19:34 42.64832 -71.21523 12299 ft 340 kts 333°
2026-05-07 19:34 42.67102 -71.22544 12948 ft 346 kts 332°
2026-05-07 19:35 42.69404 -71.23583 13593 ft 351 kts 331°
2026-05-07 19:35 42.71741 -71.24644 14134 ft 357 kts 331°
2026-05-07 19:35 42.74055 -71.25840 14704 ft 352 kts 322°
2026-05-07 19:35 42.76035 -71.27679 15275 ft 339 kts 307°
2026-05-07 19:36 42.77541 -71.30072 15869 ft 328 kts 294°
2026-05-07 19:36 42.78531 -71.32819 16467 ft 320 kts 281°
2026-05-07 19:36 42.79015 -71.35741 17070 ft 316 kts 272°
2026-05-07 19:36 42.79337 -71.38711 17683 ft 318 kts 272°
2026-05-07 19:37 42.79666 -71.41706 18266 ft 321 kts 272°
2026-05-07 19:37 42.79997 -71.44683 18809 ft 323 kts 272°
2026-05-07 19:37 42.80335 -71.47713 19380 ft 324 kts 272°
2026-05-07 19:37 42.80675 -71.50757 19980 ft 325 kts 272°
2026-05-07 19:38 42.81013 -71.53804 20567 ft 326 kts 272°
2026-05-07 19:38 42.81352 -71.56861 21178 ft 327 kts 271°
2026-05-07 19:38 42.81688 -71.59919 21794 ft 326 kts 271°
2026-05-07 19:38 42.82021 -71.62969 22373 ft 326 kts 271°
2026-05-07 19:39 42.82356 -71.66030 22922 ft 327 kts 271°
2026-05-07 19:39 42.82692 -71.69101 23443 ft 328 kts 271°
2026-05-07 19:39 42.83026 -71.72180 23869 ft 329 kts 271°
2026-05-07 19:39 42.83359 -71.75270 24282 ft 330 kts 271°
2026-05-07 19:40 42.83692 -71.78372 24687 ft 331 kts 271°
2026-05-07 19:40 42.84028 -71.81485 25076 ft 333 kts 271°
2026-05-07 19:40 42.84365 -71.84609 25447 ft 334 kts 271°
2026-05-07 19:40 42.84701 -71.87747 25803 ft 335 kts 271°
2026-05-07 19:41 42.85038 -71.90899 26160 ft 337 kts 271°
2026-05-07 19:41 42.85376 -71.94071 26523 ft 340 kts 271°
2026-05-07 19:41 42.85715 -71.97273 26823 ft 343 kts 271°
2026-05-07 19:41 42.86056 -72.00500 27126 ft 345 kts 271°
2026-05-07 19:42 42.86396 -72.03747 27453 ft 347 kts 271°
2026-05-07 19:42 42.86739 -72.07011 27768 ft 349 kts 271°
2026-05-07 19:42 42.87080 -72.10248 28032 ft 351 kts 271°
2026-05-07 19:42 42.87430 -72.13551 28348 ft 353 kts 271°
2026-05-07 19:43 42.87779 -72.16856 28684 ft 354 kts 271°
2026-05-07 19:43 42.88128 -72.20190 28997 ft 355 kts 271°
2026-05-07 19:43 42.88473 -72.23524 29286 ft 357 kts 271°
2026-05-07 19:43 42.88819 -72.26881 29591 ft 359 kts 271°
2026-05-07 19:44 42.89166 -72.30274 29717 ft 364 kts 271°
2026-05-07 19:44 42.89520 -72.33706 29898 ft 367 kts 271°
2026-05-07 19:44 42.89876 -72.37163 30095 ft 369 kts 271°
2026-05-07 19:44 42.90232 -72.40635 30302 ft 370 kts 271°
2026-05-07 19:45 42.90587 -72.44117 30524 ft 371 kts 271°
2026-05-07 19:45 42.90942 -72.47594 30812 ft 370 kts 271°
2026-05-07 19:45 42.91299 -72.51062 31104 ft 369 kts 271°
2026-05-07 19:45 42.91654 -72.54523 31397 ft 368 kts 271°
2026-05-07 19:46 42.92003 -72.57977 31665 ft 367 kts 271°
2026-05-07 19:46 42.92347 -72.61429 31967 ft 367 kts 271°
2026-05-07 19:46 42.92690 -72.64882 32206 ft 367 kts 271°
2026-05-07 19:46 42.93034 -72.68337 32454 ft 367 kts 271°
2026-05-07 19:47 42.93381 -72.71791 32716 ft 367 kts 271°
2026-05-07 19:47 42.93727 -72.75243 32992 ft 367 kts 271°
2026-05-07 19:47 42.94072 -72.78688 33272 ft 366 kts 270°
2026-05-07 19:47 42.94412 -72.82124 33555 ft 365 kts 270°
2026-05-07 19:48 42.94749 -72.85552 33847 ft 364 kts 270°
2026-05-07 19:48 42.95082 -72.88974 34095 ft 363 kts 270°
2026-05-07 19:48 42.95413 -72.92393 34312 ft 363 kts 270°
2026-05-07 19:48 42.95739 -72.95767 34574 ft 363 kts 270°
2026-05-07 19:49 42.96070 -72.99197 34728 ft 366 kts 271°
2026-05-07 19:49 42.96403 -73.02645 34889 ft 367 kts 271°
2026-05-07 19:49 42.96738 -73.06099 35065 ft 367 kts 271°
2026-05-07 19:49 42.97072 -73.09556 35261 ft 367 kts 271°
2026-05-07 19:50 42.97407 -73.13017 35454 ft 368 kts 271°
2026-05-07 19:50 42.97738 -73.16473 35643 ft 368 kts 271°
2026-05-07 19:50 42.98069 -73.19937 35810 ft 368 kts 271°
2026-05-07 19:50 42.98402 -73.23407 35864 ft 368 kts 271°
2026-05-07 19:51 42.99054 -73.30323 35914 ft 366 kts 270°
2026-05-07 19:51 42.99914 -73.37199 35874 ft 371 kts 276°
2026-05-07 19:52 43.01124 -73.44053 35874 ft 371 kts 276°
2026-05-07 19:52 43.02327 -73.50902 35877 ft 371 kts 276°
2026-05-07 19:53 43.03529 -73.57757 35915 ft 371 kts 276°
2026-05-07 19:53 43.04725 -73.64618 35886 ft 371 kts 276°
2026-05-07 19:54 43.05916 -73.71485 35907 ft 372 kts 276°
2026-05-07 19:54 43.07106 -73.78385 35895 ft 373 kts 276°
2026-05-07 19:55 43.08293 -73.85280 35893 ft 373 kts 276°
2026-05-07 19:55 43.09475 -73.92195 35894 ft 373 kts 276°
2026-05-07 19:56 43.10652 -73.99113 35894 ft 373 kts 276°
2026-05-07 19:56 43.11829 -74.06042 35908 ft 374 kts 276°
2026-05-07 19:57 43.13004 -74.12944 35905 ft 375 kts 276°
2026-05-07 19:57 43.14187 -74.19956 35905 ft 376 kts 276°
2026-05-07 19:58 43.15353 -74.26935 35905 ft 376 kts 276°
2026-05-07 19:58 43.16512 -74.33883 35905 ft 377 kts 276°
2026-05-07 19:59 43.17692 -74.40933 35937 ft 377 kts 276°
2026-05-07 19:59 43.18849 -74.47903 35930 ft 378 kts 276°
2026-05-07 20:00 43.20007 -74.54930 35934 ft 378 kts 276°
2026-05-07 20:00 43.21164 -74.61961 35918 ft 378 kts 276°
2026-05-07 20:01 43.22318 -74.68988 35918 ft 378 kts 276°
2026-05-07 20:01 43.23468 -74.76022 35917 ft 378 kts 276°
2026-05-07 20:02 43.24610 -74.83057 35923 ft 378 kts 276°
2026-05-07 20:02 43.25747 -74.90092 35922 ft 378 kts 276°
2026-05-07 20:03 43.26884 -74.97132 35924 ft 378 kts 276°
2026-05-07 20:03 43.28016 -75.04182 35923 ft 378 kts 276°
2026-05-07 20:04 43.29149 -75.11225 35944 ft 379 kts 276°
2026-05-07 20:04 43.30266 -75.18248 35932 ft 379 kts 276°
2026-05-07 20:05 43.31385 -75.25333 35918 ft 380 kts 276°
2026-05-07 20:05 43.32506 -75.32435 35915 ft 380 kts 276°
2026-05-07 20:06 43.33626 -75.39530 35920 ft 380 kts 276°
2026-05-07 20:06 43.34738 -75.46637 35939 ft 381 kts 276°
2026-05-07 20:07 43.35844 -75.53755 35928 ft 381 kts 276°
2026-05-07 20:07 43.36948 -75.60900 35925 ft 382 kts 276°
2026-05-07 20:08 43.38052 -75.68043 35927 ft 382 kts 276°
2026-05-07 20:08 43.39152 -75.75191 35929 ft 382 kts 276°
2026-05-07 20:09 43.40251 -75.82345 35945 ft 383 kts 276°
2026-05-07 20:10 43.42664 -75.92872 35931 ft 399 kts 295°
2026-05-07 20:10 43.44385 -75.95927 35930 ft 410 kts 302°
2026-05-07 20:10 43.46261 -75.98822 35927 ft 410 kts 302°
2026-05-07 20:11 43.50045 -76.04695 35928 ft 410 kts 302°
2026-05-07 20:11 43.53824 -76.10599 35930 ft 411 kts 302°
2026-05-07 20:12 43.57600 -76.16517 35963 ft 411 kts 302°
2026-05-07 20:12 43.61378 -76.22460 35948 ft 412 kts 303°
2026-05-07 20:13 43.65160 -76.28409 35942 ft 413 kts 303°
2026-05-07 20:13 43.68948 -76.34363 35944 ft 413 kts 303°
2026-05-07 20:14 43.72737 -76.40344 35943 ft 414 kts 303°
2026-05-07 20:14 43.76526 -76.46339 35945 ft 414 kts 303°
2026-05-07 20:15 43.80311 -76.52343 35977 ft 414 kts 303°
2026-05-07 20:15 43.84098 -76.58359 35968 ft 415 kts 303°
2026-05-07 20:16 43.87891 -76.64384 35955 ft 415 kts 303°
2026-05-07 20:16 43.91677 -76.70426 35939 ft 415 kts 303°
2026-05-07 20:17 43.94820 -76.75452 35936 ft 415 kts 303°
2026-05-07 20:17 43.98604 -76.81514 35934 ft 415 kts 303°
2026-05-07 20:18 44.02385 -76.87588 35956 ft 415 kts 303°
2026-05-07 20:18 44.06163 -76.93674 35950 ft 416 kts 303°
2026-05-07 20:19 44.09945 -76.99761 35943 ft 416 kts 303°
2026-05-07 20:19 44.13725 -77.05854 35933 ft 416 kts 303°
2026-05-07 20:20 44.17490 -77.11954 35921 ft 416 kts 303°
2026-05-07 20:20 44.21254 -77.18069 35917 ft 416 kts 303°
2026-05-07 20:21 44.25023 -77.24184 35930 ft 416 kts 303°
2026-05-07 20:21 44.28786 -77.30309 35946 ft 416 kts 303°
2026-05-07 20:22 44.32551 -77.36455 35928 ft 416 kts 303°
2026-05-07 20:22 44.36307 -77.42617 35504 ft 417 kts 303°
2026-05-07 20:22 44.38197 -77.45716 34711 ft 419 kts 303°
2026-05-07 20:23 44.40094 -77.48828 33905 ft 422 kts 303°
2026-05-07 20:23 44.41998 -77.51956 32949 ft 424 kts 303°
2026-05-07 20:23 44.43911 -77.55098 32133 ft 422 kts 303°
2026-05-07 20:23 44.45799 -77.58199 31618 ft 414 kts 303°
2026-05-07 20:24 44.47580 -77.61310 31056 ft 402 kts 296°
2026-05-07 20:24 44.48780 -77.64742 30524 ft 385 kts 283°
2026-05-07 20:24 44.49312 -77.68345 29990 ft 373 kts 271°
2026-05-07 20:24 44.49212 -77.71928 29347 ft 365 kts 259°
2026-05-07 20:25 44.48537 -77.75312 28819 ft 359 kts 248°
2026-05-07 20:25 44.47374 -77.78388 28283 ft 355 kts 242°
2026-05-07 20:25 44.46136 -77.81348 27753 ft 350 kts 242°
2026-05-07 20:25 44.44916 -77.84271 27235 ft 345 kts 242°
2026-05-07 20:26 44.43731 -77.87119 26729 ft 341 kts 242°
2026-05-07 20:26 44.42532 -77.90009 26237 ft 338 kts 242°
2026-05-07 20:26 44.41375 -77.92798 25760 ft 334 kts 242°
2026-05-07 20:26 44.40208 -77.95599 25280 ft 332 kts 242°
2026-05-07 20:27 44.39049 -77.98381 24816 ft 330 kts 242°
2026-05-07 20:27 44.37896 -78.01139 24365 ft 327 kts 242°
2026-05-07 20:27 44.36749 -78.03876 23917 ft 325 kts 242°
2026-05-07 20:27 44.35609 -78.06591 23468 ft 323 kts 242°
2026-05-07 20:28 44.34478 -78.09283 22996 ft 319 kts 242°
2026-05-07 20:28 44.33362 -78.11936 22586 ft 314 kts 242°
2026-05-07 20:28 44.32263 -78.14547 22175 ft 310 kts 242°
2026-05-07 20:28 44.31172 -78.17132 21765 ft 306 kts 242°
2026-05-07 20:29 44.30095 -78.19686 21362 ft 304 kts 242°
2026-05-07 20:29 44.29026 -78.22225 20953 ft 303 kts 242°
2026-05-07 20:29 44.27961 -78.24753 20549 ft 301 kts 242°
2026-05-07 20:29 44.26901 -78.27270 20130 ft 300 kts 242°
2026-05-07 20:30 44.25844 -78.29778 19716 ft 299 kts 242°
2026-05-07 20:30 44.24790 -78.32269 19301 ft 298 kts 242°
2026-05-07 20:30 44.23736 -78.34764 18907 ft 297 kts 243°
2026-05-07 20:30 44.22709 -78.37241 18840 ft 296 kts 243°
2026-05-07 20:31 44.21702 -78.39712 18774 ft 296 kts 243°
2026-05-07 20:31 44.20690 -78.42210 18710 ft 297 kts 243°
2026-05-07 20:31 44.19675 -78.44714 18608 ft 297 kts 243°
2026-05-07 20:31 44.18657 -78.47211 18288 ft 296 kts 243°
2026-05-07 20:32 44.17642 -78.49695 17903 ft 294 kts 243°
2026-05-07 20:32 44.16630 -78.52165 17592 ft 293 kts 243°
2026-05-07 20:32 44.15618 -78.54634 17215 ft 292 kts 243°
2026-05-07 20:32 44.14614 -78.57082 16844 ft 291 kts 243°
2026-05-07 20:33 44.13610 -78.59525 16473 ft 290 kts 243°
2026-05-07 20:33 44.12607 -78.61962 16103 ft 290 kts 243°
2026-05-07 20:33 44.11607 -78.64393 15739 ft 289 kts 243°
2026-05-07 20:33 44.10611 -78.66816 15374 ft 288 kts 243°
2026-05-07 20:34 44.09616 -78.69235 15007 ft 288 kts 243°
2026-05-07 20:34 44.08623 -78.71652 14643 ft 288 kts 243°
2026-05-07 20:34 44.07630 -78.74067 14276 ft 287 kts 243°
2026-05-07 20:34 44.06638 -78.76474 13903 ft 287 kts 243°
2026-05-07 20:35 44.05646 -78.78880 13505 ft 286 kts 243°
2026-05-07 20:35 44.04658 -78.81270 13121 ft 285 kts 243°
2026-05-07 20:35 44.03673 -78.83650 12743 ft 283 kts 243°
2026-05-07 20:35 44.02704 -78.85978 12371 ft 281 kts 243°
2026-05-07 20:36 44.01726 -78.88324 11989 ft 280 kts 243°
2026-05-07 20:36 44.00756 -78.90660 11610 ft 278 kts 243°
2026-05-07 20:36 43.99790 -78.92986 11231 ft 277 kts 243°
2026-05-07 20:36 43.98829 -78.95298 10847 ft 277 kts 242°
2026-05-07 20:37 43.97865 -78.97612 10464 ft 276 kts 242°
2026-05-07 20:37 43.96916 -78.99887 10242 ft 269 kts 242°
2026-05-07 20:37 43.95986 -79.02116 9985 ft 264 kts 242°
2026-05-07 20:37 43.95073 -79.04309 9850 ft 263 kts 242°
2026-05-07 20:38 43.94174 -79.06471 9715 ft 254 kts 242°
2026-05-07 20:38 43.93302 -79.08558 9487 ft 247 kts 241°
2026-05-07 20:38 43.92432 -79.10637 9012 ft 251 kts 241°
2026-05-07 20:38 43.91551 -79.12746 8514 ft 254 kts 241°
2026-05-07 20:39 43.90661 -79.14880 8020 ft 257 kts 241°
2026-05-07 20:39 43.89757 -79.17037 7510 ft 260 kts 242°
2026-05-07 20:39 43.88843 -79.19219 6999 ft 263 kts 241°
2026-05-07 20:39 43.87921 -79.21419 6483 ft 264 kts 242°
2026-05-07 20:40 43.87013 -79.23586 5958 ft 256 kts 242°
2026-05-07 20:40 43.86125 -79.25694 5457 ft 251 kts 242°
2026-05-07 20:40 43.85253 -79.27764 4974 ft 246 kts 242°
2026-05-07 20:40 43.84401 -79.29785 4485 ft 240 kts 242°
2026-05-07 20:41 43.83583 -79.31723 4368 ft 226 kts 242°
2026-05-07 20:41 43.82815 -79.33538 4317 ft 211 kts 242°
2026-05-07 20:41 43.82098 -79.35233 4249 ft 198 kts 242°
2026-05-07 20:41 43.81394 -79.36905 4165 ft 210 kts 242°
2026-05-07 20:42 43.80650 -79.38672 4085 ft 214 kts 242°
2026-05-07 20:42 43.79897 -79.40454 3989 ft 215 kts 242°
2026-05-07 20:42 43.79145 -79.42237 3893 ft 215 kts 242°
2026-05-07 20:42 43.78307 -79.43905 3714 ft 209 kts 233°
2026-05-07 20:43 43.77348 -79.45391 3464 ft 205 kts 231°
2026-05-07 20:43 43.76374 -79.46822 3185 ft 203 kts 230°
2026-05-07 20:43 43.75418 -79.48217 2940 ft 197 kts 230°
2026-05-07 20:43 43.74507 -79.49545 2640 ft 183 kts 231°
2026-05-07 20:44 43.73684 -79.50744 2435 ft 160 kts 230°
2026-05-07 20:44 43.72955 -79.51808 2206 ft 146 kts 230°
2026-05-07 20:44 43.72279 -79.52796 2006 ft 138 kts 230°
2026-05-07 20:44 43.71621 -79.53758 1817 ft 136 kts 230°
2026-05-07 20:45 43.70971 -79.54710 1620 ft 136 kts 231°
2026-05-07 20:45 43.70323 -79.55660 1424 ft 137 kts 230°
2026-05-07 20:45 43.69661 -79.56619 1229 ft 138 kts 231°
2026-05-07 20:45 43.68992 -79.57586 1023 ft 140 kts 231°
2026-05-07 20:46 43.68322 -79.58557 813 ft 139 kts 231°
2026-05-07 20:46 43.67655 -79.59523 656 ft 139 kts 233°
2026-05-07 20:46 43.67006 -79.60479 566 ft 127 kts 228°
2026-05-07 20:46 43.66568 -79.61117 565 ft 49 kts 225°
2026-05-07 20:47 43.66437 -79.61359 559 ft 28 kts 246°
2026-05-07 20:47 43.66392 -79.61545 557 ft 14 kts 252°
2026-05-07 20:47 43.66373 -79.61641 565 ft 5 kts 265°
2026-05-07 20:47 43.66374 -79.61669 568 ft 1 kts 279°
2026-05-07 20:48 43.66376 -79.61677 567 ft 2 kts 285°
2026-05-07 20:48 43.66408 -79.61735 564 ft 11 kts 317°
2026-05-07 20:48 43.66461 -79.61805 566 ft 11 kts 315°
2026-05-07 20:48 43.66526 -79.61891 559 ft 15 kts 317°
2026-05-07 20:49 43.66597 -79.61940 565 ft 11 kts 13°
2026-05-07 20:49 43.66657 -79.61867 561 ft 13 kts 47°
2026-05-07 20:49 43.66720 -79.61774 567 ft 14 kts 46°
2026-05-07 20:49 43.66787 -79.61679 564 ft 14 kts 46°
2026-05-07 20:50 43.66855 -79.61579 564 ft 16 kts 46°
2026-05-07 20:50 43.66933 -79.61467 566 ft 16 kts 46°
2026-05-07 20:50 43.67007 -79.61358 566 ft 17 kts 46°
2026-05-07 20:50 43.67095 -79.61232 567 ft 20 kts 46°
2026-05-07 20:51 43.67160 -79.61145 567 ft 12 kts 23°
2026-05-07 20:51 43.67232 -79.61204 563 ft 13 kts 315°
2026-05-07 20:51 43.67301 -79.61293 564 ft 14 kts 317°
2026-05-07 20:51 43.67380 -79.61397 566 ft 16 kts 315°
2026-05-07 20:52 43.67464 -79.61506 563 ft 17 kts 317°
2026-05-07 20:52 43.67552 -79.61620 566 ft 16 kts 317°
2026-05-07 20:52 43.67622 -79.61681 567 ft 12 kts 13°
2026-05-07 20:52 43.67691 -79.61596 564 ft 14 kts 46°
2026-05-07 20:53 43.67745 -79.61516 566 ft 9 kts 47°
2026-05-07 20:53 43.67787 -79.61456 566 ft 8 kts 46°
2026-05-07 20:53 43.67822 -79.61406 561 ft 7 kts 46°
2026-05-07 20:53 43.67839 -79.61359 561 ft 5 kts 95°
2026-05-07 20:54 43.67826 -79.61324 568 ft 3 kts 121°
2026-05-07 20:54 43.67813 -79.61295 566 ft 4 kts 121°
2026-05-07 20:54 43.67797 -79.61260 565 ft 2 kts 122°
2026-05-07 20:54 43.67795 -79.61256 564 ft 0 kts 122°